EN

Hourly Weather La Ceiba

Today, 23 July, Friday

Time Temperature Precipitation Wind Pressure Humidity
00:00 +24°C° 0.3 mm 1 mps 743 mmHg 92%
01:00 +24°C° 0.3 mm 1 mps 743 mmHg 92%
02:00 +24°C° 0.3 mm 1 mps 743 mmHg 93%
03:00 +23°C° 0.1 mm 1 mps 743 mmHg 93%
04:00 +23°C° 0.1 mm 1 mps 743 mmHg 93%
05:00 +23°C° 0.1 mm 1 mps 743 mmHg 93%
06:00 +24°C° 0 mm 1 mps 743 mmHg 89%
07:00 +26°C° 0 mm 1 mps 743 mmHg 85%
08:00 +27°C° 0 mm 1 mps 744 mmHg 81%
09:00 +29°C° 0 mm 2 mps 743 mmHg 75%
10:00 +30°C° 0 mm 2 mps 743 mmHg 69%
11:00 +31°C° 0 mm 2 mps 743 mmHg 63%
12:00 +31°C° 0 mm 3 mps 742 mmHg 62%
13:00 +33°C° 0 mm 3 mps 742 mmHg 62%
14:00 +33°C° 0 mm 4 mps 741 mmHg 61%
15:00 +32°C° 0.2 mm 4 mps 741 mmHg 66%
16:00 +30°C° 0.2 mm 4 mps 741 mmHg 71%
17:00 +29°C° 0.2 mm 4 mps 741 mmHg 76%
18:00 +27°C° 0.2 mm 3 mps 742 mmHg 81%
19:00 +26°C° 0.2 mm 2 mps 742 mmHg 86%
20:00 +25°C° 0.2 mm 1 mps 742 mmHg 91%
21:00 +25°C° 0 mm 1 mps 742 mmHg 92%
22:00 +22°C° 0 mm 0 mps 742 mmHg 92%
23:00 +22°C° 0 mm 0 mps 742 mmHg 93%

Tomorrow, 24 July, Saturday

Time Temperature Precipitation Wind Pressure Humidity
00:00 +22°C° 0 mm 0 mps 741 mmHg 94%
01:00 +24°C° 0 mm 1 mps 741 mmHg 94%
02:00 +23°C° 0 mm 1 mps 741 mmHg 94%
03:00 +23°C° 0 mm 1 mps 741 mmHg 94%
04:00 +23°C° 0 mm 1 mps 741 mmHg 94%
05:00 +23°C° 0 mm 1 mps 741 mmHg 93%
06:00 +24°C° 0 mm 1 mps 741 mmHg 89%
07:00 +26°C° 0 mm 1 mps 742 mmHg 85%
08:00 +25°C° 0 mm 0 mps 742 mmHg 80%
09:00 +29°C° 0 mm 1 mps 742 mmHg 73%
10:00 +30°C° 0 mm 1 mps 742 mmHg 67%
11:00 +31°C° 0 mm 1 mps 741 mmHg 60%
12:00 +32°C° 0 mm 2 mps 741 mmHg 58%
13:00 +33°C° 0 mm 3 mps 740 mmHg 56%
14:00 +34°C° 0 mm 3 mps 740 mmHg 54%
15:00 +33°C° 0.1 mm 3 mps 740 mmHg 60%
16:00 +31°C° 0.1 mm 3 mps 740 mmHg 66%
17:00 +30°C° 0.1 mm 3 mps 739 mmHg 72%
18:00 +28°C° 0.1 mm 2 mps 740 mmHg 78%
19:00 +27°C° 0.1 mm 2 mps 740 mmHg 83%
20:00 +25°C° 0.1 mm 1 mps 740 mmHg 89%
21:00 +25°C° 0 mm 1 mps 740 mmHg 89%
22:00 +25°C° 0 mm 1 mps 740 mmHg 90%
23:00 +25°C° 0 mm 1 mps 740 mmHg 90%

Day after tomorrow, 25 July, Sunday

Time Temperature Precipitation Wind Pressure Humidity
00:00 +24°C° 0 mm 1 mps 740 mmHg 90%
01:00 +22°C° 0 mm 0 mps 739 mmHg 90%
02:00 +22°C° 0 mm 0 mps 739 mmHg 90%
03:00 +24°C° 0 mm 1 mps 739 mmHg 90%
04:00 +23°C° 0 mm 1 mps 739 mmHg 90%
05:00 +23°C° 0 mm 1 mps 739 mmHg 89%
06:00 +25°C° 0 mm 1 mps 740 mmHg 84%
07:00 +24°C° 0 mm 0 mps 740 mmHg 79%
08:00 +26°C° 0 mm 0 mps 740 mmHg 74%
09:00 +29°C° 0 mm 1 mps 740 mmHg 70%
10:00 +31°C° 0 mm 1 mps 740 mmHg 65%
11:00 +32°C° 0 mm 1 mps 740 mmHg 60%
12:00 +32°C° 0 mm 2 mps 739 mmHg 62%
13:00 +31°C° 0 mm 2 mps 739 mmHg 63%
14:00 +31°C° 0 mm 3 mps 738 mmHg 65%
15:00 +31°C° 0.2 mm 3 mps 738 mmHg 68%
16:00 +30°C° 0.2 mm 3 mps 738 mmHg 71%
17:00 +30°C° 0.2 mm 3 mps 738 mmHg 74%
18:00 +28°C° 0.2 mm 2 mps 738 mmHg 80%
19:00 +27°C° 0.2 mm 2 mps 738 mmHg 85%
20:00 +25°C° 0.2 mm 1 mps 739 mmHg 91%
21:00 +25°C° 0 mm 1 mps 739 mmHg 92%
22:00 +25°C° 0 mm 1 mps 739 mmHg 93%
23:00 +22°C° 0 mm 0 mps 739 mmHg 93%

26 July, Monday

Time Temperature Precipitation Wind Pressure Humidity
00:00 +22°C° 0 mm 0 mps 739 mmHg 93%
01:00 +22°C° 0 mm 0 mps 738 mmHg 93%
02:00 +24°C° 0 mm 1 mps 738 mmHg 93%
03:00 +24°C° 0 mm 1 mps 738 mmHg 93%
04:00 +23°C° 0 mm 1 mps 738 mmHg 93%
05:00 +23°C° 0 mm 1 mps 738 mmHg 93%
06:00 +25°C° 0 mm 1 mps 739 mmHg 87%
07:00 +26°C° 0 mm 1 mps 739 mmHg 82%
08:00 +26°C° 0 mm 0 mps 740 mmHg 77%
09:00 +29°C° 0 mm 1 mps 740 mmHg 71%
10:00 +31°C° 0 mm 1 mps 739 mmHg 65%
11:00 +32°C° 0 mm 1 mps 739 mmHg 59%
12:00 +32°C° 0.1 mm 2 mps 739 mmHg 61%
13:00 +32°C° 0.1 mm 2 mps 739 mmHg 62%
14:00 +33°C° 0.1 mm 3 mps 738 mmHg 63%
15:00 +31°C° 0.4 mm 3 mps 738 mmHg 67%
16:00 +30°C° 0.4 mm 3 mps 738 mmHg 72%
17:00 +29°C° 0.4 mm 3 mps 738 mmHg 76%
18:00 +28°C° 0 mm 2 mps 738 mmHg 80%
19:00 +27°C° 0 mm 2 mps 739 mmHg 85%
20:00 +25°C° 0 mm 1 mps 739 mmHg 89%
21:00 +25°C° 0 mm 1 mps 739 mmHg 90%
22:00 +25°C° 0 mm 1 mps 739 mmHg 90%
23:00 +22°C° 0 mm 0 mps 739 mmHg 91%

27 July, Tuesday

Time Temperature Precipitation Wind Pressure Humidity
00:00 +22°C° 0 mm 0 mps 739 mmHg 91%
01:00 +22°C° 0 mm 0 mps 738 mmHg 92%
02:00 +22°C° 0 mm 0 mps 738 mmHg 92%
03:00 +21°C° 0 mm 0 mps 738 mmHg 92%
04:00 +23°C° 0 mm 1 mps 739 mmHg 92%
05:00 +23°C° 0 mm 1 mps 739 mmHg 91%
06:00 +24°C° 0 mm 1 mps 740 mmHg 87%
07:00 +26°C° 0 mm 1 mps 740 mmHg 82%
08:00 +27°C° 0 mm 1 mps 740 mmHg 77%
09:00 +29°C° 0 mm 1 mps 740 mmHg 72%
10:00 +31°C° 0 mm 1 mps 740 mmHg 67%
11:00 +32°C° 0 mm 1 mps 740 mmHg 61%
12:00 +33°C° 0 mm 1 mps 739 mmHg 58%
13:00 +34°C° 0 mm 2 mps 739 mmHg 54%
14:00 +35°C° 0 mm 2 mps 738 mmHg 51%
15:00 +34°C° 0 mm 2 mps 738 mmHg 56%
16:00 +31°C° 0 mm 3 mps 738 mmHg 62%
17:00 +30°C° 0 mm 3 mps 738 mmHg 68%
18:00 +29°C° 0 mm 2 mps 738 mmHg 72%
19:00 +27°C° 0 mm 2 mps 739 mmHg 76%
20:00 +25°C° 0 mm 1 mps 739 mmHg 80%
21:00 +25°C° 0 mm 1 mps 739 mmHg 81%
22:00 +24°C° 0 mm 1 mps 739 mmHg 82%
23:00 +22°C° 0 mm 0 mps 739 mmHg 82%

28 July, Wednesday

Time Temperature Precipitation Wind Pressure Humidity
00:00 +22°C° 0 mm 0 mps 739 mmHg 82%
01:00 +23°C° 0 mm 1 mps 739 mmHg 83%
02:00 +23°C° 0 mm 1 mps 738 mmHg 83%
03:00 +23°C° 0 mm 1 mps 738 mmHg 82%
04:00 +23°C° 0 mm 1 mps 739 mmHg 82%
05:00 +23°C° 0 mm 1 mps 739 mmHg 82%
06:00 +24°C° 0 mm 1 mps 739 mmHg 77%
07:00 +26°C° 0 mm 1 mps 740 mmHg 72%
08:00 +28°C° 0 mm 1 mps 740 mmHg 68%
09:00 +30°C° 0 mm 1 mps 740 mmHg 64%
10:00 +31°C° 0 mm 1 mps 740 mmHg 61%
11:00 +32°C° 0 mm 1 mps 740 mmHg 57%
12:00 +33°C° 0 mm 1 mps 739 mmHg 55%
13:00 +34°C° 0 mm 2 mps 739 mmHg 52%
14:00 +35°C° 0 mm 2 mps 738 mmHg 49%
15:00 +32°C° 0 mm 2 mps 738 mmHg 55%
16:00 +31°C° 0 mm 3 mps 738 mmHg 60%
17:00 +30°C° 0 mm 3 mps 738 mmHg 66%
18:00 +28°C° 0 mm 2 mps 738 mmHg 70%
19:00 +27°C° 0 mm 2 mps 738 mmHg 75%
20:00 +25°C° 0 mm 1 mps 738 mmHg 79%
21:00 +25°C° 0 mm 1 mps 738 mmHg 80%
22:00 +24°C° 0 mm 1 mps 738 mmHg 81%
23:00 +22°C° 0 mm 0 mps 738 mmHg 82%
Show more